Change the Weather History Date:

Friday, October 19, 2012

  Actual Average Record
Temperature  
Mean Temperature 52 °F -  
Max Temperature 65 °F 46 °F 72 °F (2014)
Min Temperature 39 °F 35 °F 24 °F (2003)
Degree Days  
Heating Degree Days 13    
Growing Degree Days 2 (Base 50)    
Moisture  
Dew Point 48 °F    
Average Humidity 90    
Maximum Humidity 100    
Minimum Humidity 59    
Precipitation  
Precipitation 0.00 in - - ()
Sea Level Pressure  
Sea Level Pressure 30.02 in    
Wind  
Wind Speed 2 mph ()    
Max Wind Speed 9 mph    
Max Gust Speed -    
Visibility 3.3 miles    
Events Fog    
Averages and records for this station are not official NWS values.
T = Trace of Precipitation, MM = Missing Value Source: Averaged Metar Reports

Daily Weather History Graph

Daily Weather History Graph

Search for Another Location

Airport or City:

Trip Planner

Search our weather history database for the weather conditions in past years. The results will help you decide how hot, cold, wet, or windy it might be!

Date:

Astronomy

Oct. 19, 2012 Rise Set
Actual Time 7:42 AM CEST 6:19 PM CEST
Civil Twilight 7:10 AM CEST 6:50 PM CEST
Nautical Twilight 6:34 AM CEST 7:27 PM CEST
Astronomical Twilight 5:58 AM CEST 8:03 PM CEST
Moon 12:26 PM CEST (10/19) 9:22 PM CEST (10/19)
Length of Visible Light 11h 40m
Length of Day
10h 36m
Waxing Crescent, 21% of the Moon is Illuminated
Oct 19
Waxing Crescent
Oct 22
First Quarter
Oct 29
Full
Nov 7
Last Quarter
Nov 13
New

Hourly Weather History & Observations

Time (CEST) Temp. Windchill Dew Point Humidity Pressure Visibility Wind Dir Wind Speed Gust Speed Precip Events Conditions
12:00 AM 45 °F - 44 °F 97% 30.06 in 0 mi NW 2.2 mph - - Fog Fog
12:20 AM 44.6 °F - 44.6 °F 100% 30.04 in 0.6 mi Variable 1.2 mph - N/A   Unknown
12:50 AM 42.8 °F - 42.8 °F 100% 30.04 in 0.6 mi Variable 2.3 mph - N/A   Unknown
1:00 AM 43 °F - 43 °F 99% 30.07 in 0 mi North 2.2 mph - - Fog Fog
1:20 AM 42.8 °F - 42.8 °F 100% 30.04 in 0.1 mi Variable 1.2 mph - N/A   Unknown
1:50 AM 44.6 °F - 44.6 °F 100% 30.04 in 0.3 mi Variable 1.2 mph - N/A   Unknown
2:00 AM 43 °F - 43 °F 99% 30.07 in 0 mi NNE 4.5 mph - - Fog Fog
2:20 AM 44.6 °F - 44.6 °F 100% 30.04 in 0.2 mi Variable 2.3 mph - N/A   Unknown
2:50 AM 42.8 °F - 42.8 °F 100% 30.04 in 0.2 mi Variable 1.2 mph - N/A   Unknown
3:00 AM 44 °F - 44 °F 99% 30.07 in 0 mi NNE 2.2 mph - - Fog Fog
3:20 AM 44.6 °F - 44.6 °F 100% 30.04 in 0.1 mi South 1.2 mph - N/A   Unknown
3:50 AM 42.8 °F - 42.8 °F 100% 30.04 in 0.6 mi Variable 1.2 mph - N/A   Unknown
4:00 AM 42 °F - 41 °F 95% 30.06 in 0 mi South 2.2 mph - - Fog Fog
4:20 AM 42.8 °F 41.1 °F 42.8 °F 100% 30.04 in 0.2 mi ENE 3.5 mph - N/A   Unknown
4:50 AM 42.8 °F - 42.8 °F 100% 30.01 in 0.7 mi Variable 1.2 mph - N/A   Unknown
5:20 AM 42.8 °F - 42.8 °F 100% 30.01 in 1.0 mi NE 2.3 mph - N/A   Unknown
5:50 AM 42.8 °F - 42.8 °F 100% 30.01 in 1.1 mi Variable 1.2 mph - N/A   Unknown
6:00 AM 43 °F - 43 °F 100% 30.05 in 2 mi NW 2.2 mph - - Fog Light Fog
6:20 AM 42.8 °F - 42.8 °F 100% 30.01 in 1.1 mi Variable 2.3 mph - N/A   Unknown
6:50 AM 41.0 °F - 41.0 °F 100% 30.01 in 5.0 mi NNW 1.2 mph - N/A   Unknown
7:00 AM 42 °F - 42 °F 100% 30.04 in 2 mi NW 2.2 mph - - Fog Patches of Fog
7:20 AM 42.8 °F - 42.8 °F 100% 30.01 in 5.0 mi West 2.3 mph - N/A   Unknown
7:50 AM 41.0 °F 39.0 °F 41.0 °F 100% 30.01 in 4.3 mi NNW 3.5 mph - N/A Fog Fog
8:00 AM 42 °F - 42 °F 98% 30.06 in 2 mi NNW 4.5 mph - - Fog Light Fog
8:20 AM 42.8 °F - 42.8 °F 100% 30.01 in 5.0 mi Variable 2.3 mph - N/A Fog Fog
8:50 AM 42.8 °F - 42.8 °F 100% 30.01 in 4.3 mi Variable 2.3 mph - N/A Fog Fog
9:00 AM 42 °F - 42 °F 100% 30.05 in 3 mi NNE 2.2 mph - -   Mist
9:20 AM 46.4 °F - 46.4 °F 100% 30.01 in 5.0 mi Variable 2.3 mph - N/A   Unknown
9:50 AM 48.2 °F - 48.2 °F 100% 30.01 in - Variable 1.2 mph - N/A   Clear
10:00 AM 50 °F - 50 °F 98% 30.03 in 6 mi NE 2.2 mph - -   Clear
10:20 AM 51.8 °F - 48.2 °F 88% 30.04 in - Variable 2.3 mph - N/A   Clear
10:50 AM 53.6 °F - 48.2 °F 82% 30.04 in - North 3.5 mph - N/A   Clear
11:20 AM 55.4 °F - 48.2 °F 77% 30.04 in - Variable 2.3 mph - N/A   Clear
11:50 AM 57.2 °F - 48.2 °F 72% 30.01 in - Variable 2.3 mph - N/A   Clear
12:00 PM 55 °F - 49 °F 72% 30.01 in 10 mi North 2.2 mph - -   Clear
12:20 PM 59.0 °F - 50.0 °F 72% 30.01 in - Variable 2.3 mph - N/A   Clear
12:50 PM 60.8 °F - 51.8 °F 72% 30.01 in - NNE 3.5 mph - N/A   Clear
1:00 PM 60 °F - 52 °F 66% 29.99 in 11 mi North 2.2 mph - -   Clear
1:20 PM 62.6 °F - 51.8 °F 68% 30.01 in - Variable 2.3 mph - N/A   Clear
1:50 PM 64.4 °F - 51.8 °F 64% 30.01 in - Variable 2.3 mph - N/A   Clear
2:00 PM 63 °F - 52 °F 59% 29.96 in 12 mi North 2.2 mph - -   Clear
2:20 PM 64.4 °F - 51.8 °F 64% 29.98 in - North 3.5 mph - N/A   Clear
2:50 PM 64.4 °F - 55.4 °F 73% 29.98 in - North 5.8 mph - N/A   Clear
3:00 PM 64 °F - 55 °F 64% 29.94 in 12 mi NNE 6.7 mph - -   Clear
3:20 PM 66.2 °F - 53.6 °F 64% 29.98 in - ENE 5.8 mph - N/A   Clear
3:50 PM 64.4 °F - 53.6 °F 68% 29.98 in - NE 5.8 mph - N/A   Clear
4:00 PM 63 °F - 55 °F 69% 29.94 in 12 mi NNE 8.9 mph - -   Clear
4:20 PM 64.4 °F - 55.4 °F 73% 29.98 in - NE 5.8 mph - N/A   Clear
4:50 PM 62.6 °F - 55.4 °F 77% 29.98 in - NE 5.8 mph - N/A   Clear
5:20 PM 62.6 °F - 55.4 °F 77% 29.95 in - NE 4.6 mph - N/A   Clear
5:50 PM 60.8 °F - 55.4 °F 82% 29.98 in - NNE 5.8 mph - N/A   Clear
6:00 PM 60 °F - 55 °F 79% 29.95 in 11 mi NNE 6.7 mph - -   Clear
6:20 PM 59.0 °F - 55.4 °F 88% 29.98 in - NE 3.5 mph - N/A   Clear
6:50 PM 55.4 °F - 53.6 °F 94% 29.98 in - NNE 4.6 mph - N/A   Clear
7:00 PM 55 °F - 52 °F 85% 29.98 in 11 mi NNE 6.7 mph - -   Clear
7:20 PM 55.4 °F - 53.6 °F 94% 30.01 in - North 4.6 mph - N/A   Clear
7:50 PM 51.8 °F - 51.8 °F 100% 30.01 in - North 2.3 mph - N/A   Clear
8:00 PM 51 °F - 50 °F 95% 30.01 in 8 mi North 2.2 mph - - Fog Patches of Fog
8:50 PM 50.0 °F - 50.0 °F 100% 30.01 in - NW 2.3 mph - N/A   Clear
9:00 PM 49 °F - 48 °F 95% 30.03 in 5 mi NNW 4.5 mph - - Fog Patches of Fog
9:20 PM 48.2 °F - 48.2 °F 100% 30.04 in 0.7 mi NW 3.5 mph - N/A   Unknown
9:50 PM 44.6 °F 43.1 °F 44.6 °F 100% 30.04 in 0.1 mi NNW 3.5 mph - N/A   Unknown
10:20 PM 44.6 °F - 44.6 °F 100% 30.06 in 0.1 mi Variable 2.3 mph - N/A   Unknown
10:50 PM 46.4 °F - 46.4 °F 100% 30.04 in 0.0 mi Variable 2.3 mph - N/A   Unknown
11:20 PM 44.6 °F - 44.6 °F 100% 30.04 in 0.1 mi SE 1.2 mph - N/A   Unknown
11:50 PM 44.6 °F - 44.6 °F 100% 30.04 in 0.1 mi WSW 1.2 mph - N/A   Unknown